Starlink 11235

operational
NORAD ID: 60726 Int'l Des: 2024-152 Owner: SPXS Country: US Constellation: starlink
LEOCIRCULAR

关于 Starlink 11235

正在加载描述...

实时位置

正在加载3D地球...

即将过境

高度历史

Altitude vs Time

uPlot chart will show altitude changes over time

两行轨道根数

1 60726U 24152G 25352.75487672 -.00002882 00000-0 -18922-4 0 9996
2 60726 53.1590 155.2155 0000779 70.7020 289.4082 15.69729573 76256
Epoch: Dec 18, 2025 • Age: 9 hours

当前状态

高度 359.8 km
速度 7.70 km/s
星下点 5.40°N, 19.67°E
发射日期 Aug 28, 2024
运行时间 1.3 years
类型 internet

技术详情

分类 Payload
质量 960.00 kg
干质量 910.00 kg
总质量 960.00 kg
长度 0.30 m
直径 4.10 m
跨度 29.00 m
形状 Box + pan
制造商 SPXS
平台类型 Starlink V2MD
阶段状态 In Orbit
所有者/国家 SPXS/US

大型星座

Loading constellations...